This demonstration page uses our WeatherBlox Daily Observations layout. Learn more.

Left ArrowRight Arrow

39.01783, -85.05884

Hourly Observations for July 31, 2018

Temp ( °F °C ) Dew Point ( °F °C ) Humidity (%) Winds ( mph kmh ) Pressure ( in mb ) Visibility ( mi km ) Precip ( " mm )
12:52 am 00:52 Cloudy 72 22.2 67 19.4 84 84 NNE 9 15 29.97 1015 10 16 0.00 0.00
1:52 am 01:52 Cloudy 72 22.2 67 19.4 84 84 NNE 8 13 29.96 1015 10 16 0.00 0.00
2:52 am 02:52 Cloudy with Light Rain 71 21.7 69 20.6 94 94 ENE 7 11 29.95 1014 5 8 0.10 2.54
3:52 am 03:52 Cloudy with Rain 70 21.1 69 20.6 97 97 NE 6 9 29.95 1014 6 10 0.11 2.79
4:52 am 04:52 Cloudy with Light Rain 69 20.6 69 20.6 100 100 E 5 7 29.95 1014 7 11 0.09 2.29
5:52 am 05:52 Cloudy with Rain 69 20.6 69 20.6 100 100 E 10 17 29.93 1013 3 5 0.10 2.54
6:20 am 06:20 Cloudy with Light Rain 69 20.6 69 20.6 100 100 E 9 15 29.94 1014 7 11 0.03 0.76
6:29 am 06:29 Cloudy with Heavy Rain 69 20.6 69 20.6 100 100 ENE 9 15 29.91 1013 2 3 0.03 0.76
6:47 am 06:47 Cloudy with Rain 70 21 70 21 100 100 NE 7 11 29.91 1013 3 4 0.15 3.81
6:52 am 06:52 Cloudy with Rain 69 20.6 69 20.6 100 100 NE 8 13 29.92 1013 3 4 0.16 4.06
7:23 am 07:23 Cloudy with Nearby Thunderstorms 69 20.6 69 20.6 100 100 NNE 7 11 29.94 1014 3 5 0.03 0.76
7:45 am 07:45 Cloudy with Nearby Thunderstorms 69 20.6 69 20.6 100 100 NE 9 15 29.94 1014 1 2 0.07 1.78
7:52 am 07:52 Cloudy with Heavy Rain 69 20.6 69 20.6 100 100 ENE 12 19 29.93 1014 1 2 0.13 3.30
8:35 am 08:35 Cloudy with Light Rain 69 20.6 69 20.6 100 100 E 10 17 29.94 1014 3 5 0.08 2.03
8:52 am 08:52 Cloudy with Light Rain 69 20.6 69 20.6 100 100 E 16 26 29.92 1013 3 5 0.09 2.29
9:21 am 09:21 Cloudy with Rain 69 20.6 69 20.6 100 100 E 9 15 29.91 1013 4 6 0.02 0.51
9:52 am 09:52 Cloudy 71 21.7 70 21.1 96 96 E 7 11 29.92 1013 10 16 0.03 0.76
10:52 am 10:52 Cloudy 72 22.2 70 21.1 94 94 ESE 8 13 29.91 1013 10 16 0.00 0.00
11:39 am 11:39 Cloudy 73 22.8 69 20.6 87 87 E 8 13 29.91 1013 10 16 0.00 0.00
11:52 am 11:52 Cloudy 73 22.8 69 20.6 87 87 ESE 8 13 29.91 1013 10 16 0.00 0.00
12:52 pm 12:52 Cloudy 73 22.8 70 21.1 90 90 SSE 6 9 29.91 1013 10 16 0.00 0.00
1:52 pm 13:52 Partly Cloudy 76 24.4 72 22.2 88 88 SSE 9 15 29.90 1012 10 16 0.00 0.00
2:52 pm 14:52 Partly Cloudy 79 26.1 71 21.7 77 77 S 9 15 29.88 1012 10 16 0.00 0.00
3:52 pm 15:52 Mostly Cloudy 79 26.1 70 21.1 74 74 S 7 11 29.86 1011 10 16 0.00 0.00
4:52 pm 16:52 Mostly Cloudy 81 27.2 71 21.7 72 72 SSW 7 11 29.86 1011 10 16 0.00 0.00
5:52 pm 17:52 Mostly Cloudy with Light Rain 78 25.6 71 21.7 79 79 S 7 11 29.85 1011 10 16 0.00 0.03
6:52 pm 18:52 Mostly Cloudy 78 25.6 67 19.4 69 69 WSW 9 15 29.85 1011 10 16 0.00 0.03
7:52 pm 19:52 Mostly Cloudy 76 24.4 67 19.4 74 74 WSW 9 15 29.87 1012 10 16 0.00 0.00
8:52 pm 20:52 Mostly Cloudy 73 22.8 68 20 84 84 SW 8 13 29.88 1012 10 16 0.00 0.00
9:52 pm 21:52 Mostly Cloudy 72 22.2 67 19.4 84 84 WSW 9 15 29.89 1012 10 16 0.00 0.00
10:52 pm 22:52 Cloudy 71 21.7 67 19.4 87 87 WSW 7 11 29.91 1013 10 16 0.00 0.00
11:52 pm 23:52 Cloudy 70 21.1 67 19.4 90 90 SW 6 9 29.91 1013 10 16 0.00 0.00

Powered by AerisWeather